Regional Weather Roundup
Issued by NWS

Home | Current Version | Previous Version | Text Only | Print | Product List | Glossary On
Versions: 1 2 3 4 5 6 7 8 9 10 11 12 13 14 15 16 17 18 19 20 21 22 23 24 25 26 27 28 29 30 31 32 33 34 35 36 37 38 39 40 41 42 43 44 45 46 47 48 49 50
909
ASUS46 KPQR 241410
RWROR

OREGON REGIONAL WEATHER ROUNDUP
NATIONAL WEATHER SERVICE PORTLAND OR
600 AM PST FRI FEB 24 2017

NOTE: "FAIR" INDICATES FEW OR NO CLOUDS BELOW 12,000 FEET WITH
NO SIGNIFICANT WEATHER AND/OR OBSTRUCTIONS TO VISIBILITY.

ORZ001>013-241500-
NORTHWEST OREGON


CITY           SKY/WX    TMP DP  RH WIND       PRES   REMARKS
ASTORIA        CLOUDY    34  31  88 SE5       30.13F WCI  30
PORTLAND       DRIZZLE   36  33  89 SE7       30.20F WCI  30
VANCOUVER WA   CLOUDY    37  35  92 SE6       30.19F WCI  32
SCAPPOOSE      CLOUDY    33  33 100 CALM      30.18F FOG
HILLSBORO      CLOUDY    33  33 100 CALM      30.18F FOG
AURORA         CLOUDY    35  32  88 CALM      30.20F
MCMINNVILLE    LGT RAIN  35  32  88 SE5       30.19F WCI  31
SALEM          CLOUDY    35  32  88 S7        30.18F WCI  29
CORVALLIS        N/A     34  30  86 SW5       30.19F WCI  30
EUGENE         CLOUDY    33  32  96 S7        30.21F WCI  27
$$

ORZ021-028-241500-
SOUTHWEST OREGON


CITY           SKY/WX    TMP DP  RH WIND       PRES   REMARKS
NORTH BEND     CLOUDY    36  36 100 SE7       30.23F WCI  30
BROOKINGS      CLOUDY    33  31  92 VRB3      30.23F
ROSEBURG       CLOUDY    34  32  92 SE3       30.23S
SEXTON SUMMIT  CLOUDY    23  21  92 S9        30.07S FOG     WCI  13
MEDFORD        PTCLDY    29  27  92 CALM      30.21F
$$

ORZ014>016-041-241500-
COLUMBIA GORGE


CITY           SKY/WX    TMP DP  RH WIND       PRES   REMARKS
TROUTDALE      CLOUDY    35  33  92 CALM      30.20F
THE DALLES     CLOUDY    27  22  81 SE6       30.20S WCI  20
$$

ORZ029>031-041-044-049-050-061>064-502-503-505>511-241500-
EASTERN OREGON


CITY           SKY/WX    TMP DP  RH WIND       PRES   REMARKS
REDMOND        PTCLDY    20  13  74 S5        30.09S WCI  13
BEND           PTCLDY    23  14  68 S5        30.09R WCI  17
PRINEVILLE     CLEAR     18  16  93 CALM      30.10R
KLAMATH FALLS  CLEAR     17  16  95 E6        30.10R WCI   9
LAKEVIEW       CLOUDY    12   9  85 N3        30.09R
HERMISTON      CLEAR     26  23  88 S5        30.17R WCI  20
PENDLETON      MOCLDY    28  21  75 S7        30.14R WCI  21
JOHN DAY       FLURRIES  24  20  85 CALM      30.07S
MEACHAM        CLOUDY    17  12  80 CALM      30.05R
LA GRANDE      CLOUDY    27  18  69 N6        30.09R WCI  20
BAKER CITY     MOCLDY    17  13  84 S6        30.07R WCI   9
BURNS          MOCLDY     6   3  87 NE6       30.08R WCI  -4
ROME             N/A     13   8  81 S9        30.07R WCI   1
ONTARIO        CLEAR     24  16  71 W13       30.13R WCI  12
$$




USA.gov is the U.S. government's official web portal to all federal, state and local government web resources and services.